"startDT [UTC]","vpos","CH4 [ppm]","stdev(CH4) [ppm]","CO2 [ppm]","stdev(CO2) [ppm]","H2O [ppm]","stdev(H2O)","p_LGR [torr]","T_LGR [C]","mt1_LGR [us]","mt2_LGR [us]","T_ECpre [C]","T_EC1 [C]","T_EC2 [C]","p_inlet [hPa]","p_in [hPa]","p_out [hPa]","T_inlet [C]","RH_inlet [%]","dwpt_inlet [C]","T_vent [C]","RH_vent [%]","dwpt_vent [C]","flow_vent [l min-1]","flow_inlet [l min-1]","dwpt_sample [C]","T_room [C]"
2012-03-08 00:00:00,0.0,1.9213,0.0010,403.92,0.25,11.5,18.9,138.21,24.48,24.57,36.23,0.04,-272.73,-272.73,-46,547,-923,17.5,4.7,-23.4,17.8,4.7,-22.9,5.73,2.52,-27.6,23.8
2012-03-08 00:01:00,0.0,1.9213,0.0010,403.88,0.24,11.7,18.8,138.22,24.47,24.57,36.23,0.04,-272.73,-272.73,-46,547,-923,17.5,4.6,-23.4,17.8,4.7,-22.9,5.73,2.31,-27.6,23.9
2012-03-08 00:02:00,0.0,1.9210,0.0009,403.82,0.26,13.1,20.4,138.22,24.47,24.58,36.23,0.04,-272.73,-272.73,-47,547,-923,17.5,4.7,-23.4,17.8,4.7,-22.9,5.73,2.46,-27.7,23.8
2012-03-08 00:03:00,0.0,1.9212,0.0010,403.84,0.21,16.6,23.6,138.22,24.46,24.57,36.23,0.04,-272.73,-272.73,-46,547,-923,17.5,4.7,-23.4,17.8,4.7,-22.9,5.73,2.42,-27.7,23.8
2012-03-08 00:04:00,0.0,1.9216,0.0009,403.85,0.24,13.8,19.9,138.21,24.46,24.57,36.23,0.04,-272.73,-272.73,-46,547,-923,17.5,4.6,-23.4,17.8,4.7,-22.9,5.73,2.33,-27.6,23.8
2012-03-08 00:05:00,0.0,1.9225,0.0008,403.89,0.26,18.4,24.8,138.22,24.45,24.57,36.23,0.04,-272.73,-272.73,-46,547,-923,17.5,4.6,-23.4,17.8,4.7,-22.9,5.73,2.52,-27.6,23.7
2012-03-08 00:06:00,0.0,1.9226,0.0010,403.82,0.27,21.7,29.7,138.22,24.46,24.57,36.23,0.04,-272.73,-272.73,-46,547,-923,17.5,4.6,-23.5,17.9,4.7,-22.9,5.73,2.29,-27.6,23.7
2012-03-08 00:07:00,0.0,1.9217,0.0009,403.92,0.25,11.4,19.4,138.22,24.45,24.58,36.22,0.04,-272.73,-272.73,-46,547,-923,17.5,4.6,-23.4,17.9,4.7,-22.9,5.73,2.49,-27.6,23.7
2012-03-08 00:08:00,0.0,1.9222,0.0011,403.82,0.29,18.8,27.5,138.21,24.45,24.57,36.23,0.04,-272.73,-272.73,-46,547,-923,17.5,4.6,-23.4,17.8,4.7,-23.0,5.73,2.36,-27.6,23.8
2012-03-08 00:09:00,0.0,1.9232,0.0008,403.80,0.24,24.1,25.4,138.22,24.45,24.57,36.23,0.04,-272.73,-272.73,-46,547,-923,17.5,4.6,-23.4,17.9,4.7,-23.0,5.73,2.39,-27.6,23.8
2012-03-08 00:10:00,0.0,1.9227,0.0009,403.75,0.29,19.6,23.6,138.21,24.45,24.57,36.23,0.04,-272.73,-272.73,-47,547,-923,17.5,4.6,-23.4,17.9,4.7,-22.9,5.73,2.48,-27.6,23.8
2012-03-08 00:11:00,0.0,1.9221,0.0010,403.84,0.27,20.0,25.1,138.21,24.45,24.57,36.23,0.04,-272.73,-272.73,-46,547,-923,17.5,4.6,-23.4,17.9,4.7,-22.9,5.73,2.30,-27.6,23.8
2012-03-08 00:12:00,0.0,1.9217,0.0009,403.86,0.28,20.2,29.2,138.22,24.45,24.57,36.23,0.04,-272.73,-272.73,-46,547,-923,17.5,4.6,-23.4,17.9,4.7,-22.9,5.73,2.52,-27.6,23.8
2012-03-08 00:13:00,0.0,1.9211,0.0009,403.84,0.23,13.5,24.1,138.21,24.45,24.58,36.23,0.04,-272.73,-272.73,-47,547,-923,17.6,4.6,-23.4,17.9,4.7,-22.9,5.73,2.28,-27.6,23.7
2012-03-08 00:14:00,0.0,1.9216,0.0009,403.85,0.28,14.0,23.6,138.21,24.45,24.57,36.23,0.04,-272.73,-272.73,-46,547,-923,17.6,4.6,-23.4,17.9,4.7,-22.9,5.73,2.50,-27.6,23.7
2012-03-08 00:15:00,0.0,1.9214,0.0010,403.86,0.28,15.4,22.1,138.22,24.44,24.57,36.23,0.04,-272.73,-272.73,-47,547,-923,17.6,4.6,-23.4,17.9,4.7,-22.9,5.73,2.34,-27.6,23.7
2012-03-08 00:16:00,0.0,1.9213,0.0009,403.85,0.25,11.0,18.8,138.22,24.44,24.57,36.23,0.04,-272.73,-272.73,-47,547,-923,17.6,4.6,-23.4,17.9,4.7,-22.9,5.73,2.41,-27.7,23.7
2012-03-08 00:17:00,0.0,1.9224,0.0008,403.89,0.30,24.1,28.5,138.22,24.44,24.57,36.23,0.04,-272.73,-272.73,-46,548,-923,17.6,4.6,-23.4,17.9,4.7,-22.9,5.73,2.44,-27.6,23.7
2012-03-08 00:18:00,0.0,1.9224,0.0010,403.73,0.25,23.6,31.1,138.21,24.44,24.58,36.23,0.04,-272.73,-272.73,-47,547,-923,17.5,4.6,-23.4,17.9,4.7,-22.9,5.73,2.32,-27.7,23.7
2012-03-08 00:19:00,0.0,1.9231,0.0010,403.87,0.30,25.2,28.8,138.22,24.44,24.57,36.23,0.04,-272.73,-272.73,-46,547,-923,17.5,4.6,-23.4,17.9,4.7,-22.9,5.73,2.51,-27.6,23.8
2012-03-08 00:20:00,0.0,1.9229,0.0009,403.86,0.26,21.6,25.7,138.22,24.44,24.58,36.23,0.04,-272.73,-272.73,-46,547,-923,17.5,4.6,-23.4,17.9,4.7,-22.9,5.73,2.28,-27.6,23.8
2012-03-08 00:21:00,0.0,1.9234,0.0010,403.89,0.28,30.2,29.6,138.21,24.44,24.57,36.23,0.04,-272.73,-272.73,-46,548,-923,17.5,4.6,-23.4,17.9,4.7,-22.9,5.73,2.51,-27.6,23.8
2012-03-08 00:22:00,0.0,1.9231,0.0009,403.84,0.22,25.8,27.7,138.21,24.44,24.58,36.23,0.04,-272.73,-272.73,-46,547,-923,17.6,4.6,-23.4,17.9,4.7,-22.9,5.73,2.33,-27.6,23.8
2012-03-08 00:23:00,0.0,1.9229,0.0010,403.88,0.28,23.3,26.3,138.21,24.44,24.57,36.23,0.04,-272.73,-272.73,-46,547,-923,17.6,4.6,-23.4,17.9,4.7,-22.9,5.73,2.43,-27.6,23.9
2012-03-08 00:24:00,0.0,1.9222,0.0009,403.82,0.24,22.1,24.9,138.22,24.44,24.57,36.23,0.04,-272.73,-272.73,-46,548,-923,17.6,4.7,-23.3,17.9,4.8,-22.8,5.73,2.43,-27.6,23.8
2012-03-08 00:25:00,0.0,1.9217,0.0008,403.86,0.31,17.6,23.8,138.21,24.43,24.58,36.23,0.04,-272.73,-272.73,-46,547,-923,17.6,4.7,-23.3,17.9,4.8,-22.8,5.73,2.33,-27.7,23.8
2012-03-08 00:26:00,0.0,1.9225,0.0010,403.76,0.25,29.0,31.5,138.21,24.43,24.57,36.23,0.04,-272.73,-272.73,-46,548,-923,17.6,4.7,-23.3,17.9,4.8,-22.8,5.73,2.52,-27.6,23.8
2012-03-08 00:27:00,0.0,1.9232,0.0009,403.80,0.24,26.5,26.6,138.22,24.43,24.57,36.23,0.04,-272.73,-272.73,-46,548,-923,17.6,4.7,-23.3,17.9,4.8,-22.8,5.73,2.28,-27.6,23.8
2012-03-08 00:28:00,0.0,1.9229,0.0010,403.91,0.23,19.9,23.9,138.21,24.43,24.57,36.23,0.04,-272.73,-272.73,-46,548,-923,17.6,4.6,-23.3,17.9,4.7,-22.8,5.73,2.51,-27.6,23.8
2012-03-08 00:29:00,0.0,1.9219,0.0010,403.84,0.28,17.4,25.6,138.21,24.43,24.58,36.24,0.04,-272.73,-272.73,-47,548,-923,17.6,4.6,-23.4,17.9,4.7,-22.9,5.73,2.34,-27.6,23.9
2012-03-08 00:30:00,0.0,1.9218,0.0009,403.82,0.23,20.4,26.7,138.22,24.42,24.57,36.23,0.04,-272.73,-272.73,-46,548,-923,17.6,4.6,-23.4,17.9,4.7,-22.9,5.73,2.41,-27.6,23.9
2012-03-08 00:31:00,0.0,1.9214,0.0011,403.82,0.25,12.0,22.2,138.21,24.42,24.58,36.23,0.04,-272.73,-272.73,-47,548,-923,17.6,4.6,-23.4,17.9,4.7,-22.9,5.73,2.45,-27.6,23.9
2012-03-08 00:32:00,0.0,1.9216,0.0009,403.79,0.25,13.9,24.5,138.22,24.42,24.57,36.23,0.04,-272.73,-272.73,-46,547,-923,17.6,4.6,-23.4,17.9,4.7,-22.9,5.73,2.32,-27.6,23.8
2012-03-08 00:33:00,0.0,1.9217,0.0009,403.87,0.24,15.1,23.4,138.21,24.42,24.58,36.23,0.04,-272.73,-272.73,-46,548,-923,17.6,4.6,-23.4,17.9,4.7,-22.9,5.73,2.51,-27.6,23.9
2012-03-08 00:34:00,0.0,1.9228,0.0011,403.90,0.29,28.6,30.3,138.22,24.42,24.58,36.22,0.04,-272.73,-272.73,-46,548,-923,17.6,4.6,-23.4,18.0,4.7,-22.9,5.73,2.28,-27.6,23.9
2012-03-08 00:35:00,0.0,1.9231,0.0008,403.85,0.27,23.2,28.4,138.21,24.42,24.57,36.23,0.04,-272.73,-272.73,-46,548,-923,17.6,4.6,-23.4,18.0,4.7,-22.9,5.73,2.52,-27.6,23.9
2012-03-08 00:36:00,0.0,1.9228,0.0009,403.85,0.26,13.8,19.9,138.21,24.42,24.57,36.23,0.04,-272.73,-272.73,-46,548,-923,17.6,4.6,-23.4,18.0,4.7,-22.9,5.73,2.31,-27.6,23.9
2012-03-08 00:37:00,0.0,1.9235,0.0009,403.85,0.25,27.7,31.0,138.21,24.42,24.57,36.23,0.04,-272.73,-272.73,-47,548,-923,17.6,4.6,-23.4,18.0,4.7,-22.9,5.73,2.47,-27.6,23.9
2012-03-08 00:38:00,0.0,1.9236,0.0011,403.85,0.26,22.6,29.2,138.21,24.42,24.57,36.23,0.04,-272.73,-272.73,-46,548,-923,17.6,4.6,-23.4,18.0,4.7,-22.9,5.73,2.37,-27.6,23.8
2012-03-08 00:39:00,0.0,1.9228,0.0009,403.97,0.27,22.4,26.7,138.21,24.42,24.58,36.23,0.04,-272.73,-272.73,-47,548,-923,17.7,4.6,-23.3,18.0,4.7,-22.8,5.73,2.39,-27.6,23.9
2012-03-08 00:40:00,1.0,1.8939,0.0198,387.96,11.01,22.4,26.4,138.21,24.42,24.57,36.24,0.04,-272.73,-272.73,-46,542,-922,17.7,4.6,-23.3,18.0,4.7,-22.8,5.73,2.41,-27.6,23.9
2012-03-08 00:41:00,1.0,1.8715,0.0010,375.68,0.26,19.8,27.3,138.21,24.41,24.57,36.24,0.04,-272.74,-272.73,-46,540,-922,17.7,4.7,-23.2,18.0,4.8,-22.7,5.73,2.31,-27.6,23.9
2012-03-08 00:42:00,1.0,1.8720,0.0011,375.67,0.22,24.5,28.5,138.21,24.41,24.57,36.25,0.04,-272.73,-272.73,-47,541,-923,17.7,4.7,-23.2,18.0,4.8,-22.7,5.73,2.51,-27.6,23.9
2012-03-08 00:43:00,1.0,1.8726,0.0011,375.67,0.25,32.1,33.6,138.21,24.42,24.57,36.24,0.04,-272.73,-272.73,-46,541,-922,17.7,4.7,-23.2,18.0,4.8,-22.7,5.73,2.28,-27.6,23.9
2012-03-08 00:44:00,1.0,1.8720,0.0011,375.68,0.26,26.0,28.0,138.21,24.42,24.58,36.25,0.04,-272.73,-272.73,-47,541,-922,17.8,4.7,-23.1,18.0,4.8,-22.6,5.73,2.52,-27.6,23.9
2012-03-08 00:45:00,0.0,1.9009,0.0196,391.14,10.94,34.7,35.0,138.21,24.42,24.57,36.25,0.04,-272.74,-272.73,-47,547,-923,17.8,4.7,-23.0,18.1,4.8,-22.6,5.73,2.29,-27.6,24.0
2012-03-08 00:46:00,0.0,1.9234,0.0010,403.71,0.29,18.8,22.0,138.21,24.42,24.57,36.24,0.04,-272.73,-272.73,-46,547,-922,17.8,4.7,-23.0,18.1,4.8,-22.5,5.73,2.49,-27.6,24.0
2012-03-08 00:47:00,0.0,1.9227,0.0011,403.81,0.27,23.6,26.9,138.21,24.42,24.57,36.23,0.04,-272.73,-272.73,-47,547,-922,17.9,4.7,-23.0,18.1,4.8,-22.5,5.73,2.35,-27.5,24.0
2012-03-08 00:48:00,0.0,1.9220,0.0009,403.82,0.27,25.1,29.5,138.21,24.42,24.58,36.23,0.04,-272.73,-272.73,-46,548,-922,17.8,4.7,-23.0,18.1,4.8,-22.5,5.73,2.43,-27.5,24.0
2012-03-08 00:49:00,0.0,1.9216,0.0009,403.88,0.26,22.1,23.0,138.21,24.42,24.58,36.23,0.04,-272.73,-272.73,-47,548,-923,17.9,4.7,-23.0,18.1,4.8,-22.5,5.73,2.41,-27.5,24.0
2012-03-08 00:50:00,0.0,1.9217,0.0009,403.81,0.27,18.2,24.1,138.21,24.41,24.57,36.23,0.04,-272.73,-272.73,-47,548,-922,17.9,4.7,-23.0,18.1,4.8,-22.6,5.73,2.36,-27.5,24.0
2012-03-08 00:51:00,0.0,1.9218,0.0010,403.86,0.27,19.9,26.0,138.21,24.41,24.57,36.23,0.04,-272.73,-272.73,-47,548,-922,17.9,4.7,-23.0,18.2,4.8,-22.5,5.73,2.46,-27.5,24.0
2012-03-08 00:52:00,0.0,1.9212,0.0011,403.75,0.31,15.9,20.8,138.21,24.41,24.57,36.23,0.04,-272.73,-272.73,-47,548,-922,17.9,4.7,-23.0,18.2,4.8,-22.5,5.73,2.32,-27.5,24.0
2012-03-08 00:53:00,0.0,1.9209,0.0010,403.82,0.27,15.5,23.8,138.21,24.40,24.58,36.23,0.04,-272.73,-272.73,-46,548,-923,17.9,4.7,-22.9,18.2,4.8,-22.5,5.73,2.51,-27.5,24.1
2012-03-08 00:54:00,0.0,1.9210,0.0010,403.71,0.26,16.5,22.8,138.21,24.40,24.57,36.24,0.04,-272.73,-272.73,-47,548,-923,17.9,4.7,-22.9,18.2,4.8,-22.5,5.73,2.28,-27.5,24.1
2012-03-08 00:55:00,0.0,1.9211,0.0008,403.74,0.24,19.6,27.2,138.21,24.40,24.57,36.24,0.04,-272.73,-272.73,-46,549,-923,18.0,4.7,-22.9,18.2,4.8,-22.5,5.73,2.53,-27.5,24.1
2012-03-08 00:56:00,0.0,1.9208,0.0009,403.85,0.26,18.4,23.2,138.21,24.40,24.58,36.23,0.04,-272.73,-272.74,-46,549,-922,18.0,4.7,-22.9,18.2,4.8,-22.4,5.73,2.28,-27.5,24.1
2012-03-08 00:57:00,0.0,1.9217,0.0011,403.82,0.26,18.4,26.6,138.21,24.40,24.57,36.23,0.04,-272.73,-272.73,-47,548,-923,18.0,4.7,-22.9,18.2,4.8,-22.4,5.73,2.51,-27.5,24.1
2012-03-08 00:58:00,0.0,1.9228,0.0009,403.77,0.27,28.2,29.1,138.21,24.40,24.57,36.24,0.04,-272.73,-272.73,-46,548,-923,18.0,4.7,-22.9,18.2,4.8,-22.5,5.73,2.30,-27.5,24.1
2012-03-08 00:59:00,0.0,1.9227,0.0009,403.86,0.23,23.1,26.6,138.21,24.40,24.57,36.23,0.04,-272.73,-272.73,-47,548,-923,18.0,4.7,-22.9,18.2,4.8,-22.4,5.73,2.48,-27.5,24.0
2012-03-08 01:00:00,0.0,1.9235,0.0008,403.74,0.23,33.2,34.5,138.21,24.41,24.57,36.23,0.04,-272.73,-272.73,-46,549,-923,18.0,4.7,-22.9,18.2,4.8,-22.5,5.73,2.36,-27.5,24.1
2012-03-08 01:01:00,0.0,1.9232,0.0010,403.84,0.24,34.3,29.0,138.21,24.41,24.58,36.23,0.04,-272.73,-272.73,-46,549,-923,18.0,4.7,-22.9,18.2,4.8,-22.5,5.73,2.41,-27.5,24.1
2012-03-08 01:02:00,0.0,1.9229,0.0009,403.83,0.28,32.8,34.2,138.21,24.41,24.57,36.23,0.04,-272.73,-272.73,-47,549,-923,18.0,4.7,-22.9,18.3,4.8,-22.4,5.73,2.43,-27.5,24.0
2012-03-08 01:03:00,0.0,1.9223,0.0008,403.93,0.27,28.4,28.1,138.21,24.41,24.57,36.23,0.04,-272.73,-272.73,-46,549,-923,18.0,4.7,-23.0,18.3,4.8,-22.5,5.73,2.35,-27.5,24.1
2012-03-08 01:04:00,0.0,1.9219,0.0010,403.94,0.27,26.0,31.6,138.21,24.41,24.58,36.22,0.04,-272.73,-272.73,-47,549,-923,18.0,4.7,-23.0,18.3,4.8,-22.5,5.73,2.48,-27.5,24.1
2012-03-08 01:05:00,0.0,1.9213,0.0011,403.92,0.28,26.0,24.7,138.21,24.41,24.58,36.23,0.04,-272.73,-272.73,-46,549,-923,18.0,4.7,-22.9,18.3,4.8,-22.5,5.73,2.31,-27.5,24.1
2012-03-08 01:06:00,0.0,1.9215,0.0012,403.91,0.27,22.8,27.8,138.21,24.41,24.57,36.23,0.04,-272.73,-272.73,-46,549,-923,18.0,4.7,-22.9,18.3,4.8,-22.4,5.73,2.51,-27.5,24.1
2012-03-08 01:07:00,0.0,1.9214,0.0010,403.86,0.24,18.1,27.7,138.21,24.41,24.58,36.23,0.04,-272.73,-272.73,-47,549,-923,18.0,4.6,-23.1,18.3,4.7,-22.6,5.73,2.28,-27.5,24.1
2012-03-08 01:08:00,0.0,1.9212,0.0010,403.85,0.25,20.1,30.5,138.21,24.40,24.58,36.23,0.04,-272.73,-272.73,-46,550,-923,18.0,4.6,-23.1,18.3,4.7,-22.7,5.73,2.52,-27.5,24.1
2012-03-08 01:09:00,0.0,1.9221,0.0010,403.84,0.31,23.4,25.2,138.21,24.40,24.57,36.23,0.04,-272.73,-272.74,-47,549,-923,18.0,4.6,-23.1,18.3,4.7,-22.6,5.73,2.30,-27.5,24.1
2012-03-08 01:10:00,0.0,1.9228,0.0010,403.81,0.24,38.6,34.7,138.21,24.41,24.58,36.23,0.04,-272.73,-272.73,-46,550,-923,18.0,4.6,-23.0,18.3,4.8,-22.5,5.73,2.49,-27.5,24.1
2012-03-08 01:11:00,0.0,1.9230,0.0010,403.74,0.24,36.5,27.5,138.21,24.41,24.57,36.24,0.04,-272.73,-272.73,-46,549,-923,18.0,4.6,-23.1,18.3,4.7,-22.6,5.73,2.35,-27.5,24.1
2012-03-08 01:12:00,0.0,1.9236,0.0009,403.91,0.25,44.3,34.1,138.21,24.41,24.57,36.23,0.04,-272.73,-272.73,-47,549,-923,18.1,4.6,-23.1,18.3,4.7,-22.6,5.73,2.42,-27.5,24.1
2012-03-08 01:13:00,0.0,1.9240,0.0010,403.81,0.29,40.2,39.1,138.21,24.42,24.57,36.24,0.04,-272.73,-272.73,-46,550,-923,18.0,4.6,-23.2,18.3,4.7,-22.7,5.73,2.42,-27.5,24.1
2012-03-08 01:14:00,0.0,1.9242,0.0010,403.87,0.23,41.1,34.5,138.21,24.42,24.57,36.23,0.04,-272.73,-272.73,-46,550,-923,18.0,4.5,-23.3,18.3,4.6,-22.8,5.73,2.36,-27.5,24.2
2012-03-08 01:15:00,0.0,1.9246,0.0008,403.91,0.27,44.3,33.3,138.21,24.43,24.57,36.23,0.04,-272.73,-272.73,-46,550,-923,18.0,4.5,-23.5,18.3,4.6,-23.0,5.73,2.48,-27.5,24.2
2012-03-08 01:16:00,0.0,1.9241,0.0010,403.83,0.28,45.2,30.5,138.21,24.43,24.57,36.24,0.04,-272.73,-272.73,-46,550,-923,18.1,4.5,-23.5,18.3,4.6,-23.0,5.73,2.31,-27.5,24.2
2012-03-08 01:17:00,0.0,1.9237,0.0010,403.88,0.27,41.8,32.8,138.21,24.43,24.57,36.23,0.04,-272.73,-272.73,-46,550,-923,18.1,4.5,-23.4,18.3,4.6,-22.9,5.73,2.52,-27.5,24.1
2012-03-08 01:18:00,0.0,1.9238,0.0009,403.92,0.27,37.0,28.5,138.21,24.43,24.57,36.23,0.04,-272.73,-272.73,-46,550,-923,18.1,4.5,-23.3,18.3,4.6,-22.8,5.73,2.28,-27.5,24.2
2012-03-08 01:19:00,0.0,1.9240,0.0009,403.84,0.23,48.6,38.9,138.21,24.43,24.58,36.23,0.04,-272.73,-272.73,-46,550,-923,18.1,4.5,-23.3,18.3,4.6,-22.9,5.73,2.52,-27.5,24.2
2012-03-08 01:20:00,0.0,1.9237,0.0010,403.96,0.26,38.1,33.7,138.21,24.44,24.58,36.23,0.04,-272.73,-272.73,-46,550,-923,18.1,4.5,-23.3,18.3,4.6,-22.9,5.73,2.30,-27.4,24.2
2012-03-08 01:21:00,0.0,1.9231,0.0009,403.90,0.28,32.3,31.8,138.21,24.44,24.57,36.23,0.04,-272.73,-272.73,-46,550,-923,18.1,4.5,-23.3,18.4,4.6,-22.9,5.73,2.49,-27.5,24.2
2012-03-08 01:22:00,0.0,1.9226,0.0009,403.91,0.25,30.1,30.3,138.21,24.44,24.58,36.24,0.04,-272.73,-272.73,-47,550,-923,18.1,4.5,-23.3,18.4,4.6,-22.8,5.73,2.34,-27.5,24.1
2012-03-08 01:23:00,0.0,1.9235,0.0010,403.96,0.25,33.4,34.8,138.21,24.44,24.58,36.23,0.04,-272.73,-272.73,-46,550,-923,18.1,4.4,-23.5,18.4,4.6,-23.0,5.73,2.43,-27.5,24.1
2012-03-08 01:24:00,0.0,1.9244,0.0010,403.91,0.24,36.7,39.4,138.21,24.44,24.58,36.24,0.04,-272.73,-272.73,-46,550,-923,18.1,4.3,-23.8,18.4,4.4,-23.3,5.73,2.40,-27.5,24.2
2012-03-08 01:25:00,0.0,1.9242,0.0011,403.99,0.23,28.0,28.9,138.21,24.45,24.58,36.23,0.04,-272.73,-272.73,-46,550,-923,18.1,4.2,-24.0,18.4,4.3,-23.5,5.73,2.38,-27.4,24.2
2012-03-08 01:26:00,0.0,1.9240,0.0010,403.98,0.28,35.8,35.8,138.21,24.45,24.58,36.23,0.04,-272.73,-272.73,-46,550,-923,18.2,4.2,-24.0,18.4,4.3,-23.6,5.73,2.45,-27.5,24.2
2012-03-08 01:27:00,0.0,1.9238,0.0010,403.92,0.29,28.8,27.5,138.21,24.45,24.57,36.24,0.04,-272.73,-272.73,-47,550,-923,18.2,4.2,-24.0,18.4,4.3,-23.6,5.73,2.33,-27.4,24.2
2012-03-08 01:28:00,0.0,1.9249,0.0009,403.97,0.28,49.8,37.1,138.21,24.45,24.57,36.23,0.04,-272.73,-272.73,-46,550,-923,18.2,4.2,-24.1,18.4,4.3,-23.6,5.73,2.48,-27.5,24.2
2012-03-08 01:29:00,0.0,1.9253,0.0010,404.09,0.33,50.0,40.6,138.21,24.45,24.57,36.23,0.04,-272.73,-272.73,-47,550,-923,18.2,4.1,-24.3,18.5,4.2,-23.8,5.73,2.30,-27.4,24.2
2012-03-08 01:30:00,0.0,1.9255,0.0010,403.95,0.27,45.9,37.0,138.21,24.46,24.58,36.24,0.04,-272.73,-272.73,-46,550,-923,18.2,4.1,-24.4,18.5,4.2,-23.9,5.73,2.51,-27.4,24.2
2012-03-08 01:31:00,0.0,1.9259,0.0010,403.99,0.22,52.2,39.8,138.21,24.46,24.57,36.24,0.04,-272.73,-272.73,-47,550,-923,18.2,4.0,-24.4,18.5,4.2,-23.9,5.73,2.29,-27.4,24.2
2012-03-08 01:32:00,0.0,1.9253,0.0010,404.10,0.24,51.0,35.0,138.21,24.47,24.57,36.23,0.04,-272.73,-272.73,-47,550,-923,18.2,4.1,-24.4,18.5,4.2,-23.9,5.73,2.52,-27.4,24.3
2012-03-08 01:33:00,0.0,1.9246,0.0010,404.03,0.27,33.6,34.8,138.21,24.47,24.58,36.23,0.04,-272.73,-272.73,-46,551,-923,18.2,4.1,-24.3,18.5,4.2,-23.9,5.73,2.28,-27.4,24.3
2012-03-08 01:34:00,0.0,1.9248,0.0010,404.01,0.27,37.0,36.6,138.21,24.47,24.57,36.23,0.04,-272.73,-272.73,-47,551,-923,18.3,4.1,-24.3,18.5,4.2,-23.9,5.73,2.52,-27.4,24.3
2012-03-08 01:35:00,0.0,1.9245,0.0010,404.07,0.25,38.7,38.1,138.21,24.47,24.57,36.23,0.04,-272.73,-272.73,-46,551,-923,18.2,4.0,-24.4,18.5,4.2,-23.9,5.73,2.28,-27.4,24.3
2012-03-08 01:36:00,0.0,1.9238,0.0010,404.05,0.25,37.3,36.0,138.21,24.47,24.58,36.23,0.04,-272.73,-272.73,-47,551,-923,18.3,4.0,-24.4,18.5,4.2,-23.9,5.73,2.52,-27.4,24.3
2012-03-08 01:37:00,0.0,1.9238,0.0011,403.92,0.26,26.2,32.4,138.21,24.47,24.57,36.24,0.04,-272.73,-272.73,-46,551,-923,18.3,4.1,-24.4,18.5,4.2,-23.9,5.73,2.28,-27.4,24.3
2012-03-08 01:38:00,0.0,1.9237,0.0011,404.03,0.28,39.0,39.4,138.21,24.47,24.57,36.23,0.04,-272.73,-272.73,-46,551,-923,18.3,4.1,-24.3,18.5,4.2,-23.8,5.73,2.51,-27.4,24.2
2012-03-08 01:39:00,0.0,1.9235,0.0009,403.92,0.30,39.0,37.2,138.21,24.47,24.58,36.24,0.04,-272.73,-272.73,-47,551,-923,18.3,4.1,-24.3,18.5,4.2,-23.8,5.73,2.28,-27.4,24.2
2012-03-08 01:40:00,0.0,1.9230,0.0010,403.94,0.27,38.4,34.2,138.21,24.47,24.58,36.23,0.04,-272.73,-272.73,-46,551,-923,18.3,4.1,-24.2,18.5,4.2,-23.7,5.73,2.52,-27.4,24.3
2012-03-08 01:41:00,0.0,1.9229,0.0011,403.88,0.22,35.1,32.1,138.21,24.47,24.57,36.24,0.04,-272.73,-272.73,-47,551,-923,18.3,4.2,-24.0,18.5,4.3,-23.5,5.73,2.29,-27.4,24.3
2012-03-08 01:42:00,0.0,1.9226,0.0009,403.94,0.26,36.9,34.7,138.21,24.47,24.58,36.23,0.04,-272.73,-272.73,-46,551,-923,18.3,4.2,-23.8,18.6,4.4,-23.4,5.73,2.52,-27.4,24.3
2012-03-08 01:43:00,0.0,1.9225,0.0011,403.86,0.25,30.2,31.8,138.21,24.47,24.58,36.23,0.04,-272.73,-272.73,-47,551,-923,18.3,4.4,-23.4,18.6,4.5,-23.0,5.73,2.28,-27.4,24.3
2012-03-08 01:44:00,0.0,1.9232,0.0010,403.80,0.24,39.3,34.4,138.21,24.48,24.58,36.23,0.04,-272.73,-272.73,-46,551,-923,18.3,4.6,-23.0,18.6,4.7,-22.6,5.73,2.51,-27.4,24.2
2012-03-08 01:45:00,0.0,1.9235,0.0009,403.77,0.24,50.7,41.6,138.21,24.48,24.58,36.24,0.04,-272.73,-272.73,-47,551,-923,18.3,4.6,-22.8,18.6,4.8,-22.3,5.73,2.28,-27.4,24.3
2012-03-08 01:46:00,0.0,1.9238,0.0010,403.83,0.29,44.0,37.9,138.21,24.49,24.57,36.24,0.04,-272.73,-272.73,-47,551,-923,18.3,4.7,-22.7,18.6,4.8,-22.2,5.73,2.51,-27.4,24.3
2012-03-08 01:47:00,0.0,1.9238,0.0011,403.83,0.24,54.5,36.5,138.20,24.49,24.58,36.23,0.04,-272.73,-272.72,-47,551,-923,18.3,4.7,-22.7,18.6,4.8,-22.2,5.73,2.28,-27.3,24.3
2012-03-08 01:48:00,0.0,1.9239,0.0011,403.80,0.26,49.7,40.0,138.21,24.50,24.57,36.24,0.04,-272.73,-272.73,-47,551,-923,18.4,4.7,-22.6,18.6,4.8,-22.2,5.73,2.51,-27.4,24.3
2012-03-08 01:49:00,0.0,1.9239,0.0009,403.84,0.27,53.9,39.1,138.20,24.51,24.58,36.24,0.04,-272.73,-272.73,-47,551,-923,18.4,4.7,-22.7,18.6,4.8,-22.2,5.73,2.29,-27.4,24.3
2012-03-08 01:50:00,0.0,1.9242,0.0011,403.92,0.26,60.4,43.2,138.21,24.51,24.58,36.23,0.04,-272.73,-272.73,-47,551,-923,18.4,4.7,-22.8,18.6,4.8,-22.3,5.73,2.50,-27.4,24.3
2012-03-08 01:51:00,0.0,1.9242,0.0011,403.90,0.26,52.9,32.0,138.21,24.52,24.58,36.23,0.04,-272.73,-272.73,-47,552,-923,18.4,4.6,-22.8,18.6,4.7,-22.4,5.73,2.31,-27.4,24.3
2012-03-08 01:52:00,0.0,1.9241,0.0011,403.95,0.28,55.4,40.1,138.20,24.52,24.58,36.23,0.04,-272.73,-272.73,-47,552,-923,18.4,4.6,-22.8,18.6,4.7,-22.4,5.73,2.48,-27.4,24.3
2012-03-08 01:53:00,0.0,1.9247,0.0012,403.84,0.27,74.7,43.8,138.20,24.53,24.58,36.24,0.04,-272.73,-272.73,-47,551,-923,18.4,4.6,-22.8,18.6,4.7,-22.4,5.73,2.33,-27.4,24.3
2012-03-08 01:54:00,0.0,1.9247,0.0011,403.96,0.25,72.3,42.1,138.20,24.53,24.58,36.23,0.04,-272.73,-272.73,-47,551,-923,18.4,4.6,-22.9,18.6,4.7,-22.5,5.73,2.45,-27.3,24.3
2012-03-08 01:55:00,0.0,1.9245,0.0010,403.97,0.27,59.9,41.0,138.20,24.54,24.58,36.24,0.04,-272.73,-272.73,-46,552,-923,18.4,4.6,-23.0,18.6,4.7,-22.5,5.73,2.35,-27.3,24.3
2012-03-08 01:56:00,0.0,1.9250,0.0010,404.02,0.23,53.1,39.7,138.20,24.54,24.57,36.23,0.04,-272.73,-272.73,-47,552,-923,18.4,4.5,-23.0,18.6,4.7,-22.5,5.73,2.43,-27.4,24.3
2012-03-08 01:57:00,0.0,1.9246,0.0010,403.99,0.27,49.0,38.4,138.20,24.55,24.57,36.24,0.04,-272.73,-272.73,-46,552,-923,18.4,4.5,-23.1,18.7,4.6,-22.6,5.73,2.38,-27.4,24.3
2012-03-08 01:58:00,0.0,1.9245,0.0009,404.01,0.25,48.0,40.7,138.20,24.55,24.58,36.23,0.04,-272.73,-272.73,-47,552,-923,18.4,4.5,-23.1,18.7,4.6,-22.6,5.73,2.40,-27.4,24.3
2012-03-08 01:59:00,0.0,1.9239,0.0010,403.95,0.29,34.5,33.0,138.20,24.55,24.58,36.23,0.04,-272.73,-272.73,-47,552,-924,18.4,4.5,-23.1,18.7,4.6,-22.6,5.73,2.42,-27.4,24.3
2012-03-08 02:00:00,0.0,1.9238,0.0010,403.92,0.25,45.5,41.0,138.21,24.55,24.58,36.23,0.04,-272.73,-272.73,-47,552,-924,18.4,4.5,-23.1,18.7,4.6,-22.6,5.73,2.36,-27.4,24.3
2012-03-08 02:01:00,0.0,1.9238,0.0010,403.89,0.25,38.8,34.3,138.20,24.55,24.58,36.24,0.04,-272.73,-272.73,-46,552,-924,18.4,4.5,-23.1,18.7,4.6,-22.6,5.73,2.46,-27.3,24.3
2012-03-08 02:02:00,0.0,1.9238,0.0010,403.99,0.27,45.4,41.0,138.20,24.55,24.57,36.23,0.04,-272.73,-272.74,-47,552,-923,18.4,4.5,-23.1,18.7,4.6,-22.6,5.73,2.32,-27.3,24.3
2012-03-08 02:03:00,0.0,1.9236,0.0009,403.97,0.24,38.3,35.3,138.21,24.55,24.57,36.23,0.04,-272.73,-272.73,-47,552,-923,18.4,4.5,-23.1,18.7,4.6,-22.6,5.73,2.49,-27.4,24.3
2012-03-08 02:04:00,0.0,1.9234,0.0011,403.97,0.29,33.5,31.9,138.20,24.55,24.58,36.23,0.04,-272.73,-272.73,-47,552,-924,18.4,4.5,-23.1,18.7,4.6,-22.7,5.73,2.30,-27.3,24.4
2012-03-08 02:05:00,0.0,1.9228,0.0011,403.93,0.23,36.6,36.9,138.20,24.55,24.58,36.23,0.04,-272.73,-272.73,-47,552,-924,18.5,4.5,-23.1,18.7,4.6,-22.6,5.73,2.51,-27.3,24.4
2012-03-08 02:06:00,0.0,1.9230,0.0010,403.94,0.22,33.7,36.4,138.21,24.55,24.57,36.23,0.04,-272.73,-272.73,-46,552,-924,18.4,4.5,-23.0,18.7,4.7,-22.5,5.73,2.28,-27.3,24.4
2012-03-08 02:07:00,0.0,1.9230,0.0010,403.86,0.27,43.2,45.4,138.21,24.55,24.58,36.23,0.04,-272.73,-272.73,-47,552,-924,18.4,4.6,-23.0,18.7,4.7,-22.5,5.73,2.52,-27.3,24.4
2012-03-08 02:08:00,0.0,1.9225,0.0010,403.90,0.21,30.5,32.8,138.20,24.56,24.58,36.23,0.04,-272.73,-272.73,-46,552,-924,18.5,4.6,-22.9,18.7,4.7,-22.4,5.73,2.28,-27.4,24.4
2012-03-08 02:09:00,0.0,1.9225,0.0011,403.88,0.27,49.3,40.6,138.20,24.56,24.58,36.23,0.04,-272.73,-272.73,-47,552,-924,18.5,4.6,-22.8,18.7,4.7,-22.4,5.73,2.51,-27.3,24.4
2012-03-08 02:10:00,0.0,1.9228,0.0010,403.78,0.27,31.8,35.2,138.20,24.56,24.57,36.24,0.04,-272.73,-272.73,-47,552,-924,18.5,4.6,-22.8,18.7,4.7,-22.3,5.73,2.29,-27.3,24.4
2012-03-08 02:11:00,0.0,1.9230,0.0010,403.99,0.23,35.7,38.0,138.20,24.56,24.58,36.23,0.04,-272.73,-272.73,-47,552,-924,18.5,4.6,-22.9,18.7,4.7,-22.4,5.73,2.50,-27.3,24.4
2012-03-08 02:12:00,0.0,1.9228,0.0011,403.92,0.23,46.9,41.7,138.20,24.57,24.57,36.23,0.04,-272.73,-272.73,-46,552,-924,18.5,4.5,-23.0,18.7,4.7,-22.5,5.73,2.31,-27.3,24.4
2012-03-08 02:13:00,0.0,1.9230,0.0011,403.89,0.22,44.2,40.1,138.20,24.57,24.57,36.23,0.04,-272.73,-272.73,-47,552,-924,18.5,4.6,-22.9,18.7,4.7,-22.5,5.73,2.48,-27.3,24.5
2012-03-08 02:14:00,0.0,1.9226,0.0012,403.88,0.25,32.0,31.4,138.21,24.57,24.57,36.23,0.04,-272.73,-272.73,-46,552,-924,18.5,4.6,-22.8,18.7,4.7,-22.4,5.73,2.34,-27.3,24.5
2012-03-08 02:15:00,0.0,1.9231,0.0011,403.90,0.24,41.4,41.7,138.20,24.57,24.57,36.23,0.04,-272.73,-272.73,-47,553,-924,18.5,4.6,-22.8,18.8,4.7,-22.4,5.73,2.44,-27.3,24.5
2012-03-08 02:16:00,0.0,1.9240,0.0010,403.85,0.28,51.1,42.5,138.20,24.58,24.58,36.24,0.04,-272.73,-272.73,-46,553,-924,18.5,4.5,-22.9,18.8,4.7,-22.5,5.73,2.38,-27.3,24.5
2012-03-08 02:17:00,0.0,1.9244,0.0011,403.91,0.27,52.6,38.6,138.20,24.59,24.57,36.23,0.04,-272.73,-272.73,-47,553,-924,18.5,4.5,-22.9,18.8,4.7,-22.5,5.73,2.40,-27.3,24.5